Theta_e
339 339 338 338 336 335 335 335 333 331 327 323 322 321 318 320 317 313 312 314 315 311 308 314 314 313 311 311 312 313 313 314 313 314 311 312 310 311 307 307 307 307 306
340 331 339 336 336 335 336 335 333 333 329 323 322 322 321 321 318 316 314 314 314 315 311 311 313 312 312 314 313 313 313 313 313 311 312 311 310 306 306 307 307 307 307
340 338 332 335 334 337 335 334 333 331 330 327 323 322 321 321 319 320 318 315 315 313 314 314 312 311 312 312 312 312 313 312 310 312 312 309 306 308 306 306 306 306 306
338 338 337 334 333 333 333 332 332 331 329 327 324 324 323 321 322 321 319 317 315 312 314 315 313 311 312 310 312 313 312 308 311 312 309 307 307 306 306 305 306 306 306
335 337 340 334 332 335 333 332 332 332 330 329 327 325 324 323 322 321 320 317 316 314 314 314 309 311 309 311 312 310 307 309 310 311 307 305 306 306 305 304 305 304 306
333 328 335 333 333 333 332 332 331 331 331 330 328 325 324 324 322 322 320 318 317 315 312 309 310 309 308 311 312 312 312 310 310 307 306 304 305 306 304 302 302 305 304
329 332 333 331 333 333 332 332 331 329 328 328 329 328 326 324 322 321 320 319 318 315 313 310 311 311 310 312 312 311 310 311 310 309 307 305 306 305 302 302 303 303 303
324 325 327 329 329 328 329 330 329 329 328 329 328 328 327 326 324 322 320 318 317 315 312 312 311 310 310 310 311 311 311 311 308 309 308 307 306 304 303 303 302 304 304
322 322 324 325 326 328 328 325 324 324 326 325 325 326 326 325 324 322 320 318 316 314 313 312 309 310 310 311 311 311 311 310 309 310 306 306 305 303 305 304 302 302 302
322 322 322 322 322 324 327 327 323 324 325 324 326 324 324 324 324 322 320 317 314 313 312 311 309 310 311 311 310 312 311 309 309 307 306 305 303 304 305 305 303 303 303
319 320 321 321 322 322 322 320 318 321 323 323 322 322 324 324 323 320 319 317 314 313 311 310 311 312 312 312 309 311 310 308 305 305 305 302 303 305 305 304 304 303 303
315 315 315 318 319 320 321 320 323 323 320 322 321 321 324 322 321 317 316 315 314 312 313 311 311 310 311 309 310 308 302 300 301 301 303 304 305 306 305 304 304 304 302
316 316 313 315 317 318 320 321 320 323 319 316 320 321 321 321 319 316 314 314 313 311 311 309 309 311 311 310 304 301 302 303 302 303 304 304 305 305 305 305 304 303 303
316 315 312 314 314 312 315 315 317 322 319 312 316 320 321 319 317 315 313 313 312 310 310 307 310 311 308 305 304 304 304 305 305 304 305 306 305 305 305 304 304 303 303
314 317 316 315 314 314 313 312 314 318 319 314 313 320 320 319 317 315 314 313 311 309 306 310 311 308 308 308 307 307 307 307 306 305 306 306 305 304 304 303 303 302 302
311 312 313 314 313 312 311 311 312 312 315 314 311 319 318 316 315 313 312 311 312 311 312 311 309 308 308 309 307 306 306 305 305 305 304 303 303 303 302 302 301 301 300
310 310 311 311 312 312 312 310 309 312 316 314 313 319 316 314 313 311 309 310 310 311 309 304 305 306 307 306 305 304 303 302 302 303 303 303 302 301 301 300 299 299 299
311 310 310 311 311 311 311 311 313 316 318 313 314 317 315 310 309 309 309 311 310 306 306 305 305 306 305 304 304 303 302 302 303 303 303 302 301 300 299 298 298 299 299
309 312 312 312 312 311 310 309 309 313 315 314 315 316 312 310 312 310 311 309 304 306 307 307 306 304 303 303 302 302 302 303 302 302 301 300 298 298 298 298 298 298 298
313 311 311 310 311 311 310 310 313 311 311 313 315 314 311 312 311 311 308 303 304 306 306 304 303 303 302 302 302 303 302 302 301 300 298 298 298 298 298 297 296 296 297
312 312 311 311 311 312 310 312 313 309 311 315 316 313 310 311 310 306 305 306 306 304 302 302 302 301 301 303 302 302 301 300 299 298 298 298 297 296 294 294 294 295 297
311 311 311 311 312 310 309 308 312 313 312 313 314 313 310 308 305 306 307 306 303 302 301 301 301 302 303 302 301 300 300 299 299 298 296 296 296 294 294 294 294 295 295
310 310 311 311 312 309 309 311 311 312 311 311 311 310 308 305 307 307 306 305 302 301 301 301 302 302 302 301 300 300 299 298 296 295 296 296 294 295 295 294 294 295 296
310 311 311 311 313 312 313 311 309 308 307 308 307 305 306 306 306 306 304 302 301 301 300 302 302 301 301 300 300 299 295 293 298 297 295 295 294 295 295 296 296 297 297
310 311 312 312 313 314 311 309 308 307 307 307 306 306 306 306 305 304 302 301 300 300 301 302 301 301 300 299 298 296 292 296 297 295 295 295 295 296 296 297 298 298 299
311 311 313 312 312 313 309 308 308 308 308 307 306 306 306 305 305 302 301 300 300 301 302 302 301 300 299 299 297 293 293 297 296 295 295 295 296 296 297 297 298 299 299
Wind_Speed
7 8 8 10 13 12 15 17 21 21 21 22 20 17 16 17 18 15 12 10 13 8 9 14 11 6 12 17 12 14 14 16 17 19 20 18 17 16 16 16 17 19 18
9 6 9 12 14 13 12 11 12 16 21 27 24 21 19 20 19 18 15 15 15 14 9 11 14 16 15 13 13 11 19 19 18 21 18 18 15 23 22 16 18 14 12
8 9 8 8 11 11 10 10 11 11 16 24 25 23 23 25 19 19 20 16 18 17 16 17 18 15 17 16 14 18 18 18 18 15 19 17 18 9 7 8 13 17 17
6 13 10 9 9 10 11 11 10 10 14 18 22 24 24 22 22 26 24 23 20 22 20 23 21 19 17 21 15 18 14 19 18 16 14 15 16 15 17 18 21 21 21
2 4 7 8 10 9 9 10 13 14 13 15 19 22 24 25 28 30 29 27 27 23 23 27 22 21 18 22 19 21 20 23 21 20 19 15 16 18 19 22 23 26 19
6 3 5 6 7 9 10 12 13 14 15 16 19 21 23 29 32 32 31 32 30 26 25 21 23 24 18 21 17 21 24 16 25 20 15 12 14 16 26 25 25 20 22
3 3 6 5 4 6 8 11 14 13 15 17 18 21 26 30 29 33 32 32 30 28 25 21 24 19 18 10 12 15 18 15 16 16 15 11 13 18 21 22 16 17 18
2 3 5 8 6 7 9 10 10 12 13 13 18 22 23 24 27 30 33 32 31 28 20 22 20 15 16 15 19 19 18 16 15 14 15 12 15 16 20 18 16 17 17
4 4 6 6 5 9 11 11 11 12 15 17 19 19 19 21 24 25 26 31 29 22 19 16 15 16 14 17 16 18 19 15 13 19 11 13 18 19 20 18 12 12 17
3 6 6 9 11 6 11 13 11 13 14 17 18 18 18 19 19 25 28 30 22 19 16 13 14 12 17 16 17 19 18 12 13 9 9 14 17 18 18 18 14 12 12
3 6 8 11 12 10 16 17 16 13 16 16 18 21 20 18 18 18 23 23 18 16 13 12 12 15 14 16 13 17 16 17 18 19 18 14 15 14 15 18 12 11 13
7 12 11 12 13 12 17 18 17 14 14 17 19 21 18 17 15 12 19 20 16 15 11 15 12 13 9 8 13 17 16 14 13 15 12 15 12 15 14 13 9 13 19
15 18 15 17 16 16 17 11 16 10 19 18 20 19 18 18 12 9 12 18 18 18 16 15 13 11 11 13 14 10 9 12 14 12 14 16 16 15 18 14 12 17 17
17 18 16 16 17 16 19 16 18 17 20 20 21 18 16 14 10 9 15 17 19 17 16 13 12 10 11 10 10 11 15 14 16 18 16 15 12 10 15 14 15 14 16
19 19 18 20 22 21 17 20 18 21 19 18 20 17 14 13 11 12 15 16 12 7 8 11 12 10 14 17 15 16 14 13 11 16 17 11 12 13 14 12 13 16 16
21 20 21 21 20 22 24 23 23 22 21 16 16 15 11 8 8 15 14 13 9 6 8 10 10 14 22 19 5 5 6 6 5 5 5 7 10 12 13 15 14 14 14
23 23 22 22 24 22 21 24 29 30 22 17 10 11 8 15 15 14 15 13 10 9 7 7 7 11 14 6 7 8 8 9 11 10 9 12 13 15 14 13 12 12 11
26 22 21 23 24 25 26 25 22 20 15 11 6 6 13 15 16 15 12 7 7 5 2 2 6 13 7 7 8 9 11 10 8 10 10 14 14 12 11 12 13 12 11
24 25 20 22 25 26 26 26 27 20 23 12 4 15 21 18 15 13 8 9 7 4 7 12 9 7 7 7 8 7 9 10 11 13 12 11 12 13 14 13 16 17 11
16 20 21 25 27 28 28 25 18 17 17 22 5 23 24 18 14 12 11 7 4 3 6 3 5 7 9 6 6 7 6 7 10 9 10 12 14 15 16 20 18 9 6
18 22 22 26 26 24 16 14 11 18 21 17 7 23 22 18 14 11 8 8 1 2 3 3 3 7 5 5 4 8 9 9 10 10 12 16 21 21 12 6 2 2 2
20 20 23 29 26 15 12 15 13 10 12 9 11 27 22 18 13 8 3 5 5 2 3 2 3 5 3 3 6 7 7 7 10 12 14 16 16 5 4 5 3 2 3
21 22 25 29 20 17 21 15 15 12 9 11 22 30 25 19 13 9 6 4 2 1 1 1 1 3 5 5 7 9 11 15 17 17 13 11 2 5 6 5 6 6 5
20 22 24 28 11 7 12 7 3 5 6 17 24 24 24 21 11 7 4 1 3 2 2 1 1 4 4 2 8 13 17 12 9 11 5 5 7 8 10 11 8 7 6
18 22 17 10 3 8 3 11 19 21 21 20 20 20 18 7 7 7 3 3 3 2 1 1 3 3 8 10 12 16 15 8 7 4 7 10 10 7 5 5 8 8 6
19 21 13 10 9 4 10 20 19 17 15 16 13 9 7 10 7 4 3 3 3 2 2 1 2 4 11 12 15 16 9 7 5 5 10 11 8 6 6 6 5 6 6
Wind_Direction
231 254 253 258 272 276 261 263 260 253 223 215 235 240 232 237 242 246 240 228 250 249 248 213 231 257 244 264 260 285 297 313 310 304 313 313 325 314 320 302 314 312 320
276 297 216 249 262 273 269 266 263 252 233 221 228 241 233 233 246 243 235 230 246 238 262 208 222 230 244 274 261 280 290 291 305 310 310 327 326 317 313 307 309 312 311
278 303 319 268 280 285 294 276 267 251 240 230 234 240 234 237 246 245 249 248 229 246 227 229 234 238 248 260 262 273 283 294 307 309 317 321 328 331 329 338 333 330 315
282 301 304 315 282 292 283 289 280 264 249 238 241 246 249 249 239 240 253 250 239 241 238 244 249 239 256 252 262 271 285 304 305 315 312 328 323 322 324 329 320 314 306
256 268 277 298 304 285 288 297 284 275 265 261 255 256 254 243 238 246 254 250 250 249 243 248 252 240 245 269 272 280 284 292 288 287 311 306 316 325 333 324 319 315 311
335 322 265 288 279 276 288 289 291 281 274 268 263 259 254 250 244 252 253 250 254 255 249 255 248 251 238 256 264 274 275 290 293 290 301 314 298 313 318 315 305 317 319
343 7 327 336 287 271 284 291 286 297 280 282 275 266 264 260 256 253 251 252 257 251 254 252 270 249 239 274 280 291 295 280 285 285 278 288 295 318 318 323 326 320 318
2 8 7 351 342 322 312 315 307 297 288 286 293 287 278 269 262 256 256 256 254 247 244 264 258 235 248 256 281 282 283 295 284 281 275 274 307 305 313 317 332 325 323
2 2 1 344 347 336 321 306 298 300 298 289 293 295 289 279 272 260 257 250 240 237 249 261 233 248 263 281 276 272 278 283 294 286 268 291 305 314 310 314 316 331 329
323 334 342 322 330 325 322 319 307 300 298 302 295 304 292 279 276 264 256 237 230 234 246 241 243 266 277 277 272 282 280 276 289 286 287 289 306 300 295 310 302 298 311
321 315 326 326 319 330 301 298 316 297 294 295 304 300 296 285 284 277 256 232 235 239 246 233 254 262 287 289 266 281 271 264 271 266 281 288 286 282 281 301 283 291 294
298 315 304 288 294 293 288 305 308 309 314 302 305 301 293 294 288 267 255 237 230 220 212 235 260 286 280 261 256 272 274 268 272 287 283 288 277 297 303 314 280 295 308
288 291 292 284 284 285 287 295 308 279 311 310 303 299 295 290 279 254 240 221 207 219 218 245 254 280 277 284 286 277 272 277 272 283 286 276 297 289 291 316 291 299 310
291 290 286 280 280 290 285 291 292 273 299 314 308 298 292 284 263 232 213 219 210 227 237 251 278 290 295 294 282 284 286 284 283 267 266 277 292 282 295 287 292 299 295
292 286 281 281 287 293 287 303 291 276 284 308 311 295 278 265 247 211 203 201 213 248 238 258 254 266 281 283 276 272 284 278 289 299 277 282 294 290 303 308 292 298 299
285 288 288 290 291 294 294 288 295 284 282 298 309 292 267 234 206 174 177 174 193 234 247 232 241 269 280 281 308 300 304 306 265 251 297 296 297 308 301 302 307 300 298
277 278 278 283 288 288 286 286 284 277 270 279 297 270 208 173 170 179 178 178 213 254 250 240 253 279 299 308 318 316 321 314 308 296 302 303 307 305 309 304 308 308 307
290 277 281 282 281 287 284 285 298 260 260 294 290 225 182 175 171 169 171 192 197 181 192 256 263 291 304 317 318 317 310 298 300 308 304 306 312 305 302 297 294 298 296
284 294 290 294 292 291 291 289 282 282 264 241 209 190 182 179 181 173 188 182 193 191 281 287 287 307 321 318 313 309 318 308 316 317 319 305 298 294 288 280 280 288 283
293 293 298 297 289 280 276 283 272 285 302 279 238 191 186 181 174 189 173 182 174 339 311 299 306 320 318 303 308 319 309 321 326 316 312 306 294 290 290 291 295 279 269
285 297 295 292 295 286 299 307 289 286 280 261 245 196 184 177 176 159 144 133 119 357 343 303 305 323 316 328 319 313 330 332 311 306 300 294 295 304 310 311 358 17 340
287 293 286 291 297 278 296 285 273 265 268 268 235 185 179 147 156 160 142 132 119 37 317 2 334 348 308 306 336 338 323 292 283 294 300 297 310 341 47 89 75 68 1
290 286 282 285 274 287 290 272 274 286 279 226 187 163 160 150 147 133 147 162 115 153 52 315 81 315 320 334 318 293 295 297 304 303 303 314 46 55 55 71 79 60 33
280 277 276 286 249 222 223 267 1 86 130 145 139 136 142 140 105 156 138 76 112 119 101 32 314 349 329 345 267 298 325 324 319 315 337 105 77 64 66 52 52 35 38
267 270 278 318 272 219 20 108 115 110 111 119 129 131 125 108 131 131 125 140 152 116 299 146 264 344 290 305 319 325 333 343 358 38 99 93 92 82 64 39 23 33 27
272 287 277 302 223 157 135 129 123 117 115 121 122 120 132 146 120 133 143 132 119 179 145 308 323 351 292 314 327 333 345 6 36 79 107 97 87 73 40 24 46 12 10